Simultaneous Nadir Overpasses (SNOs) Predictions

Prediction of SNOs between GOES-15 and TERRA Satellite Orbit:

Table of predicted SNOs for the next 14.0 days since TLE Epoch: 1/3/2015
Index Date Time (GOES-15) GOES-15 Lat,Lon TERRA Lat,Lon Distance(km) Time Diff (sec)
1 01/04/2015 07:16:11 0.02,-135.17 0.71,-131.92 370.01 80
2 01/04/2015 19:37:28 -0.01,-135.16 0.39,-137.08 218.42 80
3 01/06/2015 19:28:04 -0.01,-135.11 -0.20,-134.15 108.81 80
4 01/07/2015 07:49:30 -0.01,-135.10 -0.90,-139.35 482.88 80
5 01/08/2015 19:16:03 -0.01,-135.06 -0.80,-131.23 434.39 80
6 01/09/2015 07:37:30 -0.01,-135.05 -0.28,-136.44 157.86 80
7 01/11/2015 07:22:53 -0.01,-134.99 0.28,-133.53 165.40 80
8 01/11/2015 19:44:12 0.02,-134.96 0.79,-138.71 425.53 80
9 01/13/2015 07:10:59
